OPS 4682 DEB, 26731

Orbit data source: Space-Track

OPS 4682 DEB, 26731 is space debris in LEO originally from a launch on Sat, 03 Apr 1965 UTC launched from the Air Force Western Test Range (AFWTR). Debris objects in space refer to the collection of defunct objects orbiting the Earth. Examples of debris include non-operational satellites, rocket bodies, and fragments generated from explosions, collisions, or faulty payload assembly.

Loading next visibility...
Identifier
26731, 1965-027BE
Orbit
LEO
Country
Flag of USUS
Related business
Manufacturer
Unknown
Mission
Spacecraft
Bus & Motor
Unknown
Mass
Unknown
Launch date (UTC)
1965-04-03 (61 years ago)
Launch vehicle
Unknown
Launch site
Air Force Western Test Range (AFWTR)
Object type
Payload
Rocket body
Debris
Shape & HBR
Unknown shape, 0.1 m
Radar Cross Section
Medium (>0.1 m² and <1 m²)

Expand to show TLE details & history
Last TLE update: 4 days ago

TLE from 4 days ago
0 OPS 4682 DEB
1 26731U 65027BE  26204.26376000  .00000356  00000-0  12347-2 0  9990
2 26731  90.2575  15.2820 0024469 124.2280  52.4035 12.95334406566510
Epoch: 2026-07-23T06:19Z
TLE epoch observation values (Epoch: 2026-07-23T06:19:48.863Z)
Latitude
3.0516°
Longitude
159.33481°
Altitude
1,271.548 km
Speed
7.225 km/s
True Right ascension
13h 01m 10s
True Declination
3° 02' 05"
Sunlit
Object was in daylight at epoch
Visualization orbit readout
Latitude
Unknown
Longitude
Unknown
Altitude
Unknown
Speed
Unknown
Apparent Right ascension
Unknown
Apparent Declination
Unknown
Sunlit
N/A
Visualization observer readout
Local Sidereal Time
20:29:56
Azimuth
Unknown
Elevation
Unknown
Doppler factor
Unknown
Orbital elements
Apogee altitude
1,296.288 km
Perigee altitude
1,258.823 km
Semi-major axis
7,655.692 km
Eccentricity
0.00245
Inclination
90.2575°
RAAN
15.282°
Arg. of periapsis
124.228°
True anomaly
52.62608°
Mean anomaly
52.4035°
Eccentric anomaly
52.51475°
Mean motion
3.24016 °/min
Orbital period
111.11 mins
BSTAR
0.0012347
Loading maneuver chart data...
Computing Atmospheric mass density...
Loading historical data...
Loading historical data...
Loading historical data...
Loading historical data...
Loading historical data...
Loading historical data...
Loading historical data...

Documentation

Showing up to 5 results
|